Location: Peterborough
(44.3091°N, 78.3197°W)
Time: 04:51:43
(UTC-04:00)

Vanguard 3 - Pass Details

Date: 22 February 2024
Orbit: 510 x 3236 km, 33.3° (Epoch: 12 April)

Event Time Altitude Azimuth Distance (km) Brightness Sun altitude
Rises 04:04:14 0° 275° (W) 6,000 - -32.4°
Reaches altitude 10° 04:10:28 10° 259° (W) 4,392 - -31.3°
Maximum altitude 04:16:48 17° 225° (SW) 3,182 - -30.2°
Drops below altitude 10° 04:21:35 10° 188° (S) 3,137 - -29.4°
Exits shadow 04:23:05 - 178° (S) 3,331 10.2 -29.1°
Sets 04:24:59 0° 167° (SSE) 3,691 10.5 -28.8°
